Vorticity
-3 -6 -8 -10 -11 -10 -9 -8 -7 -5 -4 -4 -3 -2 -1 1 4 6 7 9 9 9 10 11 10 10 10 10 10 11 11 12 12 11 11 10 11 11 11 12 11 11 10 9 9 9 8 7 7 7 6 6 6 6 5 5 5 6 6 7 8 8 8 8 9 8 8 8 8
-3 -5 -7 -8 -7 -6 -4 -3 -2 -1 0 -0 0 2 4 7 9 10 11 13 13 12 12 13 13 12 12 11 11 11 11 12 11 11 10 10 10 10 11 11 11 11 11 11 10 10 10 9 8 8 7 7 7 7 7 8 8 8 9 9 10 9 9 9 9 9 8 7 7
2 2 -0 -2 -1 1 4 7 7 6 4 3 4 6 8 11 12 13 13 13 13 14 15 14 14 14 13 12 11 11 11 12 11 11 11 10 10 10 11 11 11 11 11 12 12 12 12 11 11 11 10 10 10 10 10 10 11 11 11 11 10 10 9 9 8 8 7 7 6
5 7 9 14 18 20 20 17 13 10 8 6 7 9 12 13 14 14 14 15 15 14 13 12 13 13 13 12 12 12 12 12 12 11 11 11 11 11 11 11 12 12 12 12 13 13 13 13 13 13 13 13 13 13 13 13 12 12 11 10 9 9 8 8 7 7 6 6 6
11 16 21 25 25 22 18 14 10 8 8 9 10 13 14 15 15 15 16 16 13 11 8 8 9 11 13 13 13 13 12 12 12 12 11 11 11 11 12 12 13 13 13 13 13 13 14 14 14 15 15 15 14 14 13 12 11 10 9 9 8 7 7 7 7 6 6 6 7
9 11 13 14 12 9 7 7 7 8 8 10 11 11 11 11 12 12 12 10 8 6 5 5 6 9 11 13 14 14 13 12 12 12 12 12 12 12 13 13 13 14 14 14 14 14 14 14 14 14 14 14 13 12 11 10 9 8 8 7 7 7 6 6 6 6 6 7 7
4 4 4 5 6 6 6 7 9 10 10 11 11 9 7 6 7 8 7 7 6 5 4 3 4 6 9 12 13 14 14 13 13 12 12 12 12 13 13 13 14 14 15 15 14 14 14 14 13 13 12 11 10 9 9 8 7 7 6 7 6 6 6 6 6 6 7 7 7
-0 0 1 2 4 6 7 8 10 11 11 12 10 8 5 4 5 6 6 8 7 7 5 4 3 4 7 10 12 14 14 14 13 13 13 12 13 13 13 14 14 14 15 15 14 14 13 13 12 11 10 9 8 7 7 7 6 6 6 6 6 7 7 6 6 7 7 7 8
-2 -2 -0 1 2 4 7 9 11 11 11 11 9 7 6 5 6 7 7 8 7 7 6 5 4 4 6 8 11 13 14 14 13 13 13 13 13 13 13 13 14 14 14 13 13 12 12 11 10 10 9 8 7 7 6 6 6 6 6 7 7 7 8 8 7 7 8 8 8
0 -1 -1 -1 -0 2 5 8 10 10 8 8 7 7 7 8 9 9 9 7 8 8 7 6 5 5 5 6 9 11 13 14 14 14 13 13 13 13 13 13 13 13 13 12 11 11 10 9 9 8 8 7 7 7 7 7 7 7 8 8 8 8 9 9 9 9 9 9 9
2 -1 -2 -3 -2 1 4 7 7 6 5 5 6 7 9 10 11 10 9 9 8 8 7 7 6 6 5 6 8 10 13 14 14 14 14 14 14 14 14 13 13 13 12 11 10 9 9 8 8 8 8 8 7 7 8 8 8 9 9 10 10 10 10 10 10 10 10 10 11
-1 -2 -2 -0 1 3 4 5 4 3 2 3 4 6 8 10 10 10 9 8 8 8 8 7 7 6 6 5 7 9 12 14 14 15 15 15 15 15 15 14 14 13 12 11 10 9 8 7 7 7 8 8 8 9 9 9 10 10 11 11 11 12 12 12 12 12 12 12 13
-2 -0 4 9 9 7 4 1 1 1 2 2 3 5 7 9 9 9 8 8 9 9 8 7 7 6 6 5 6 8 11 13 14 14 14 15 15 15 15 15 14 13 12 11 10 9 8 8 7 8 8 9 9 10 10 10 11 11 11 12 12 12 12 13 13 13 13 14 14
-0 2 6 12 12 8 3 -1 -1 1 4 5 5 6 7 8 8 7 7 8 9 9 8 8 7 6 5 5 5 7 9 12 13 14 14 14 15 15 15 15 14 13 13 11 10 9 9 8 8 8 9 9 10 11 11 11 11 11 11 11 11 11 12 12 12 12 13 13 13
2 3 5 8 9 8 5 1 -0 2 6 9 8 7 7 7 6 6 6 7 7 8 8 8 8 7 5 4 5 6 8 10 12 13 14 14 14 14 14 14 14 13 13 12 11 10 10 9 10 10 10 11 11 12 12 12 12 11 11 10 10 10 10 10 10 10 10 10 10
4 3 3 4 7 8 8 4 1 2 6 10 8 7 6 6 5 5 4 5 5 5 5 6 7 8 7 5 4 5 6 9 11 13 14 14 14 14 14 14 14 13 13 12 12 11 11 11 11 11 12 12 12 12 12 12 11 11 10 10 9 9 9 9 9 9 8 8 8
5 3 2 2 5 8 9 7 2 2 4 6 5 5 6 6 5 4 3 2 2 2 2 3 6 8 9 7 4 3 4 7 10 13 14 14 14 14 14 14 14 13 13 13 12 12 12 12 12 13 13 13 13 13 12 12 11 10 10 9 9 8 8 8 8 8 8 7 7
8 4 2 2 4 7 10 9 4 1 1 2 3 5 7 7 6 4 2 1 0 -0 -0 1 4 8 10 10 6 3 3 6 10 13 14 15 15 15 14 14 14 14 14 13 13 13 13 13 13 14 14 14 14 13 12 11 11 10 9 8 8 7 7 7 7 7 7 8 8
9 6 2 1 3 7 10 10 4 1 -0 1 4 7 9 8 6 4 2 0 -1 -2 -2 -0 3 7 11 12 7 4 3 5 10 13 14 14 14 14 14 14 14 14 15 15 15 15 14 14 14 14 14 14 14 13 12 11 10 9 8 7 7 7 7 7 7 7 8 8 8
8 5 2 3 7 10 11 10 5 3 3 6 9 10 9 7 5 3 2 -0 -2 -3 -2 -0 4 8 12 13 9 5 3 6 10 13 15 14 14 14 14 14 14 15 15 15 15 15 15 15 14 14 14 14 13 13 12 11 10 9 8 7 7 7 6 7 7 7 8 9 9
5 4 5 10 14 14 12 9 8 8 10 11 10 9 7 5 3 2 0 -1 -2 -2 -1 2 6 10 14 16 10 6 5 7 11 14 15 15 14 14 14 14 14 15 15 15 15 15 15 15 14 14 14 14 13 12 11 10 10 9 8 7 7 7 7 7 8 8 9 9 9
3 7 13 20 18 15 12 12 14 14 13 11 7 5 4 2 1 -1 -2 -2 -1 1 3 5 9 13 16 17 12 8 7 9 12 15 16 15 14 14 14 14 14 15 15 15 15 15 15 15 15 14 14 13 13 12 11 10 9 9 8 7 7 7 8 8 8 9 10 10 10
7 15 22 22 16 14 15 17 18 16 12 7 4 2 1 -0 -2 -3 -3 -2 0 3 6 9 12 15 17 16 13 10 9 11 14 16 16 15 15 14 14 14 14 14 14 14 14 15 15 15 15 14 14 13 12 11 11 10 9 9 8 8 8 8 8 9 9 10 10 11 12
18 22 21 16 16 18 19 18 16 12 8 4 2 1 -1 -2 -4 -4 -3 -1 2 6 9 12 15 17 17 16 13 11 10 12 15 16 16 15 15 14 14 14 14 14 14 14 14 14 15 14 14 14 13 13 12 11 11 10 9 9 9 9 9 9 9 10 10 11 11 12 13
22 20 18 19 21 19 16 12 11 8 6 4 2 1 -1 -3 -4 -3 -1 2 5 9 12 15 17 17 17 16 14 12 12 14 15 15 15 14 14 14 14 14 13 13 13 13 14 14 14 14 13 13 13 12 12 11 11 10 10 9 9 9 10 10 10 11 11 12 12 13 14
20 22 24 26 20 13 8 7 7 7 6 5 3 1 -1 -3 -3 -1 2 5 9 13 15 17 18 18 17 16 15 14 14 15 15 15 14 14 14 14 13 13 13 13 13 13 13 13 13 13 12 12 12 11 11 11 10 10 10 10 10 10 10 10 10 11 11 12 13 14 14
25 28 27 22 12 6 4 6 8 8 7 6 3 -0 -2 -3 -1 2 5 9 13 15 17 18 18 18 17 16 16 16 16 15 15 14 13 13 13 13 13 12 12 12 12 13 13 12 12 12 11 11 11 10 10 10 10 10 10 10 10 10 10 10 10 11 11 12 12 13 14
27 26 21 14 9 7 8 10 10 9 6 3 0 -1 -2 -1 2 5 9 12 15 16 18 18 18 18 17 17 17 17 16 15 14 13 13 12 12 12 12 12 12 12 12 12 12 12 11 11 11 10 10 10 10 10 10 10 10 10 10 10 10 10 10 11 11 12 12 13 13
26 24 20 16 14 12 10 10 8 6 3 0 -1 -1 0 2 5 8 12 14 16 18 18 18 18 17 17 17 16 16 15 14 13 13 12 12 12 11 11 11 11 11 12 12 12 12 11 11 11 10 10 10 10 10 11 11 11 11 11 11 11 11 11 11 12 12 12 13 13
31 27 23 17 13 10 8 6 5 3 1 1 1 2 4 6 9 12 15 17 18 18 17 17 17 17 17 16 15 14 13 13 12 11 11 11 11 11 11 10 10 11 11 12 12 12 11 11 11 11 11 10 11 11 11 12 12 12 12 12 12 12 12 12 12 13 13 13 13
27 20 14 9 7 6 5 5 4 3 3 3 4 6 8 11 13 16 17 17 17 17 16 16 16 16 16 15 13 12 12 11 11 11 10 10 10 10 10 10 10 10 11 11 12 12 11 11 11 11 11 11 12 12 12 12 12 12 12 12 12 13 13 13 13 13 13 13 14
10 7 5 5 5 6 6 6 6 6 6 7 8 10 12 15 16 16 16 16 16 16 16 16 16 15 14 13 12 11 11 10 10 10 10 10 10 10 10 9 9 10 10 10 11 11 11 11 11 11 12 12 12 12 12 12 13 13 13 13 13 13 13 13 13 13 13 14 14
3 4 5 6 7 8 8 8 9 9 10 11 13 14 15 15 15 15 16 16 16 16 16 15 14 13 12 11 11 10 10 10 10 10 10 10 10 10 10 9 9 9 9 9 10 10 11 11 11 11 12 13 13 12 12 12 12 13 13 13 14 13 13 13 13 13 13 14 14
6 7 9 10 11 12 11 11 11 12 13 14 15 16 15 14 14 14 15 15 15 15 14 13 12 11 10 9 9 9 9 9 10 10 10 10 10 10 10 10 10 10 9 9 9 10 10 11 10 11 12 13 13 13 12 12 12 12 13 13 13 13 13 13 13 13 13 13 13
13 14 15 16 15 14 13 12 12 13 14 15 15 15 14 14 13 13 13 14 14 14 13 12 11 10 9 8 8 8 9 9 10 10 10 10 10 10 10 10 11 10 10 10 10 10 10 11 10 11 11 13 13 13 13 12 12 12 12 12 12 13 13 13 13 13 13 13 13
19 19 18 16 14 12 12 12 12 13 13 14 13 13 13 13 13 13 13 13 13 13 12 11 10 9 9 8 8 8 8 9 10 10 10 10 10 10 11 11 11 11 11 11 11 10 10 10 10 11 12 13 13 13 12 12 11 11 11 11 12 12 12 12 12 12 12 12 12
18 16 14 12 10 10 10 10 11 11 12 12 12 12 13 13 13 13 12 12 12 11 11 10 9 8 8 8 8 9 9 9 10 10 11 11 11 11 12 12 12 12 12 12 11 10 10 10 10 11 12 13 13 12 12 11 11 11 11 11 11 11 11 11 11 11 11 11 11
12 11 9 9 9 9 9 10 10 10 11 12 12 12 12 13 13 13 12 11 10 9 9 8 8 8 8 9 9 10 10 10 10 11 12 12 13 13 13 13 13 12 12 11 11 10 10 10 10 11 12 13 12 12 11 11 10 10 10 10 10 11 11 11 11 11 11 11 11
10 9 8 8 8 8 8 9 9 10 11 11 12 12 13 12 12 12 11 10 9 8 7 7 8 9 9 10 10 10 10 11 11 12 12 13 13 13 13 13 12 12 11 11 11 11 10 10 11 11 12 12 12 12 11 11 10 10 10 10 10 11 11 11 11 11 11 11 11
10 9 9 8 8 8 8 8 9 10 11 11 12 12 12 11 11 10 9 9 8 7 7 7 8 9 10 10 10 11 11 12 12 12 13 13 13 13 13 12 11 11 11 11 11 11 11 11 11 12 12 12 12 12 12 11 11 11 11 11 11 11 12 12 12 12 12 12 12
11 10 9 8 7 7 8 8 9 10 11 12 12 11 11 10 10 9 8 8 7 7 7 7 8 9 10 10 11 11 12 13 13 13 13 13 13 12 12 11 11 11 11 11 12 12 12 12 12 12 12 12 13 13 13 12 12 12 13 13 13 13 13 13 13 13 13 13 13
Height
3029 3028 3028 3028 3027 3026 3026 3026 3026 3026 3026 3026 3026 3025 3025 3025 3025 3024 3024 3024 3023 3023 3022 3021 3020 3020 3019 3018 3018 3017 3017 3017 3016 3016 3016 3015 3015 3015 3015 3015 3015 3015 3014 3014 3014 3014 3014 3014 3014 3015 3015 3015 3015 3015 3015 3015 3015 3015 3015 3015 3015 3015 3015 3015 3015 3015 3016 3016 3016
3027 3026 3026 3025 3025 3024 3024 3024 3024 3024 3024 3024 3023 3023 3023 3023 3023 3022 3022 3021 3021 3020 3019 3018 3018 3017 3016 3016 3015 3015 3014 3014 3013 3013 3013 3013 3013 3013 3012 3012 3012 3012 3012 3012 3012 3012 3012 3012 3012 3012 3012 3012 3012 3012 3012 3012 3013 3013 3012 3012 3012 3012 3012 3012 3013 3013 3013 3013 3013
3024 3024 3023 3023 3023 3022 3022 3022 3022 3022 3022 3021 3021 3021 3021 3020 3020 3020 3019 3018 3018 3018 3017 3016 3015 3014 3014 3013 3013 3012 3012 3011 3011 3010 3010 3010 3010 3010 3009 3009 3009 3009 3009 3009 3009 3009 3009 3009 3009 3009 3009 3009 3009 3009 3009 3009 3009 3009 3009 3009 3009 3009 3009 3009 3010 3010 3010 3010 3010
3022 3021 3021 3021 3020 3020 3020 3020 3020 3019 3019 3019 3019 3018 3018 3018 3018 3017 3016 3016 3016 3015 3014 3013 3013 3012 3011 3011 3010 3009 3009 3008 3008 3008 3008 3007 3007 3007 3007 3006 3006 3006 3006 3006 3006 3006 3006 3006 3006 3006 3006 3006 3006 3006 3006 3006 3007 3007 3007 3007 3007 3007 3007 3007 3007 3007 3008 3008 3008
3019 3019 3018 3018 3018 3018 3017 3017 3017 3017 3017 3016 3016 3016 3015 3015 3014 3014 3013 3013 3013 3012 3011 3011 3010 3009 3009 3008 3008 3007 3007 3006 3006 3005 3005 3004 3004 3004 3004 3003 3003 3003 3003 3003 3003 3003 3003 3003 3003 3003 3003 3003 3003 3003 3003 3003 3003 3003 3004 3004 3004 3004 3004 3004 3004 3005 3005 3005 3006
3017 3017 3016 3016 3015 3015 3015 3014 3014 3014 3014 3014 3013 3013 3013 3012 3012 3011 3011 3010 3010 3009 3008 3008 3008 3007 3007 3006 3005 3005 3004 3003 3003 3003 3002 3002 3002 3001 3001 3001 3001 3001 3000 3000 3000 3000 3000 3000 3000 3000 3001 3001 3001 3001 3001 3001 3001 3001 3001 3001 3001 3001 3002 3002 3002 3002 3003 3003 3003
3014 3013 3013 3013 3013 3012 3012 3012 3012 3011 3011 3011 3011 3010 3010 3009 3009 3009 3008 3008 3007 3007 3006 3005 3005 3004 3004 3003 3003 3002 3002 3001 3001 3000 3000 2999 2999 2999 2998 2998 2998 2998 2998 2998 2998 2998 2998 2998 2998 2998 2998 2998 2998 2998 2998 2998 2998 2998 2998 2998 2999 2999 2999 2999 3000 3000 3000 3000 3001
3010 3011 3011 3010 3010 3009 3009 3009 3008 3008 3008 3008 3008 3007 3007 3007 3006 3006 3005 3005 3004 3004 3003 3003 3003 3002 3002 3001 3000 3000 2999 2998 2998 2998 2997 2997 2996 2996 2996 2995 2995 2995 2995 2995 2995 2995 2995 2995 2995 2995 2995 2995 2995 2995 2995 2995 2995 2996 2996 2996 2996 2997 2997 2997 2997 2997 2998 2998 2998
3007 3007 3008 3008 3007 3007 3006 3006 3006 3005 3005 3005 3004 3004 3004 3003 3003 3003 3003 3002 3002 3001 3001 3000 3000 3000 2999 2999 2998 2998 2997 2996 2995 2995 2994 2994 2993 2993 2993 2993 2993 2993 2992 2992 2992 2992 2992 2992 2992 2992 2992 2992 2992 2992 2992 2993 2993 2993 2993 2994 2994 2994 2994 2994 2994 2995 2995 2995 2995
3003 3004 3004 3004 3004 3004 3003 3003 3003 3002 3002 3002 3001 3001 3001 3000 3000 3000 3000 2999 2999 2999 2998 2998 2998 2997 2997 2996 2996 2995 2994 2993 2993 2992 2992 2991 2991 2990 2990 2990 2989 2989 2989 2989 2989 2989 2989 2989 2989 2989 2989 2989 2989 2990 2990 2990 2990 2991 2991 2991 2992 2992 2992 2992 2992 2992 2992 2992 2993
3001 3001 3001 3001 3001 3001 3000 3000 2999 2999 2999 2998 2998 2998 2998 2998 2997 2997 2997 2997 2996 2996 2996 2995 2995 2994 2994 2994 2993 2993 2992 2991 2990 2990 2989 2988 2988 2988 2987 2987 2987 2987 2987 2986 2986 2986 2986 2986 2986 2987 2987 2987 2987 2987 2987 2988 2988 2988 2988 2989 2989 2989 2989 2989 2989 2989 2989 2989 2990
2997 2997 2997 2997 2997 2997 2997 2997 2996 2996 2995 2995 2995 2995 2994 2994 2994 2994 2994 2994 2993 2993 2993 2993 2992 2992 2991 2991 2991 2990 2989 2988 2988 2987 2986 2986 2985 2985 2984 2984 2984 2984 2984 2984 2983 2983 2983 2983 2984 2984 2984 2984 2984 2985 2985 2985 2985 2985 2986 2986 2986 2986 2986 2986 2987 2987 2987 2987 2987
2993 2993 2993 2994 2994 2994 2994 2993 2993 2993 2993 2992 2992 2992 2992 2991 2991 2991 2991 2991 2991 2990 2990 2990 2989 2989 2989 2988 2988 2987 2986 2986 2985 2984 2983 2983 2983 2982 2982 2982 2981 2981 2981 2981 2981 2981 2981 2981 2981 2981 2981 2982 2982 2982 2982 2982 2983 2983 2983 2983 2983 2983 2983 2984 2984 2984 2984 2984 2984
2989 2990 2990 2990 2990 2990 2990 2990 2990 2990 2990 2989 2989 2989 2989 2988 2988 2988 2988 2988 2988 2988 2988 2987 2987 2986 2986 2985 2985 2984 2983 2983 2982 2981 2981 2980 2980 2979 2979 2979 2979 2978 2978 2978 2978 2978 2978 2978 2978 2978 2979 2979 2979 2979 2979 2980 2980 2980 2980 2980 2980 2981 2981 2981 2981 2981 2981 2982 2982
2986 2986 2987 2987 2987 2987 2987 2988 2988 2988 2987 2987 2986 2986 2986 2986 2986 2986 2985 2985 2985 2985 2985 2985 2984 2984 2983 2983 2982 2981 2980 2980 2979 2978 2978 2977 2977 2977 2976 2976 2976 2975 2975 2975 2975 2975 2975 2975 2976 2976 2976 2976 2976 2977 2977 2977 2977 2977 2977 2978 2978 2978 2978 2978 2978 2979 2979 2979 2979
2983 2983 2983 2983 2983 2984 2984 2985 2985 2985 2984 2984 2983 2983 2983 2983 2983 2983 2983 2983 2983 2983 2983 2983 2982 2982 2981 2980 2979 2978 2978 2977 2976 2976 2975 2974 2974 2974 2973 2973 2973 2973 2972 2972 2972 2973 2973 2973 2973 2973 2973 2973 2974 2974 2974 2974 2974 2974 2974 2975 2975 2975 2975 2976 2976 2976 2976 2976 2976
2980 2979 2979 2980 2980 2981 2981 2982 2982 2982 2981 2981 2980 2980 2980 2980 2980 2981 2981 2981 2981 2980 2980 2980 2979 2979 2978 2978 2977 2976 2975 2974 2973 2973 2972 2972 2971 2971 2971 2970 2970 2970 2970 2970 2970 2970 2970 2970 2970 2970 2971 2971 2971 2971 2971 2971 2972 2972 2972 2972 2973 2973 2973 2973 2973 2973 2973 2973 2973
2976 2976 2976 2976 2976 2977 2977 2978 2978 2978 2978 2978 2978 2978 2978 2978 2978 2978 2978 2978 2978 2978 2977 2977 2977 2976 2976 2975 2974 2973 2972 2971 2971 2970 2969 2969 2968 2968 2968 2967 2967 2967 2967 2967 2967 2967 2967 2967 2968 2968 2968 2968 2968 2968 2968 2969 2969 2969 2969 2969 2970 2970 2970 2970 2970 2970 2970 2970 2970
2973 2972 2972 2972 2972 2972 2973 2974 2974 2975 2975 2975 2975 2976 2976 2976 2976 2976 2976 2976 2976 2975 2974 2974 2974 2973 2973 2972 2972 2971 2970 2969 2968 2967 2967 2966 2966 2965 2965 2964 2964 2964 2964 2964 2964 2964 2964 2964 2965 2965 2965 2966 2966 2966 2966 2966 2966 2966 2967 2967 2967 2967 2967 2967 2968 2968 2968 2967 2967
2968 2968 2968 2967 2968 2968 2969 2970 2971 2972 2973 2973 2973 2974 2974 2974 2974 2974 2974 2973 2973 2973 2972 2971 2971 2970 2970 2969 2969 2968 2967 2967 2966 2965 2964 2963 2963 2962 2962 2962 2961 2961 2961 2961 2961 2961 2961 2961 2962 2962 2963 2963 2963 2963 2963 2963 2963 2963 2964 2964 2964 2964 2964 2964 2964 2964 2964 2964 2964
2964 2964 2963 2963 2963 2964 2966 2968 2969 2970 2971 2971 2972 2972 2972 2972 2972 2972 2971 2971 2971 2970 2969 2969 2968 2967 2967 2966 2966 2965 2964 2964 2963 2963 2962 2961 2960 2959 2959 2959 2959 2958 2958 2958 2958 2958 2959 2959 2959 2959 2960 2960 2960 2961 2961 2961 2961 2961 2961 2961 2961 2961 2961 2961 2961 2961 2961 2961 2961
2960 2960 2959 2959 2960 2962 2964 2966 2967 2968 2969 2969 2969 2969 2969 2969 2969 2969 2969 2968 2968 2968 2967 2966 2965 2964 2964 2963 2963 2962 2962 2961 2961 2960 2959 2958 2958 2957 2957 2956 2956 2956 2956 2956 2956 2956 2956 2956 2956 2957 2957 2958 2958 2958 2958 2958 2958 2958 2958 2958 2958 2958 2958 2958 2958 2958 2958 2958 2958
2956 2955 2955 2956 2958 2961 2963 2964 2965 2966 2966 2967 2967 2967 2967 2967 2967 2967 2966 2966 2965 2965 2964 2963 2962 2962 2961 2960 2960 2959 2959 2958 2958 2957 2957 2956 2955 2954 2954 2954 2953 2953 2953 2953 2953 2953 2953 2954 2954 2954 2954 2954 2955 2955 2955 2955 2955 2955 2955 2955 2955 2955 2955 2955 2955 2955 2955 2955 2955
2952 2952 2953 2956 2958 2960 2962 2963 2963 2963 2964 2964 2964 2964 2964 2964 2964 2964 2964 2963 2963 2962 2961 2960 2959 2959 2958 2958 2957 2957 2956 2956 2955 2954 2954 2953 2952 2952 2951 2951 2951 2951 2950 2950 2951 2951 2951 2951 2951 2951 2951 2952 2952 2952 2953 2953 2952 2952 2952 2952 2952 2952 2952 2952 2952 2952 2952 2952 2952
2950 2951 2953 2956 2958 2959 2960 2960 2961 2961 2961 2961 2962 2962 2962 2962 2962 2961 2961 2960 2959 2959 2958 2957 2957 2956 2955 2955 2954 2954 2953 2953 2953 2952 2951 2950 2950 2949 2949 2948 2948 2948 2948 2948 2948 2949 2949 2949 2949 2949 2949 2949 2949 2949 2949 2950 2950 2949 2949 2949 2949 2949 2949 2949 2949 2949 2949 2948 2949
2950 2952 2954 2955 2956 2957 2958 2958 2958 2958 2958 2959 2959 2959 2959 2959 2959 2959 2958 2958 2957 2956 2955 2954 2954 2953 2953 2952 2952 2951 2951 2951 2950 2949 2949 2948 2948 2947 2947 2946 2945 2945 2945 2946 2946 2947 2947 2946 2946 2946 2946 2946 2946 2946 2946 2947 2947 2947 2946 2946 2946 2946 2946 2946 2946 2946 2945 2945 2945
2951 2952 2953 2953 2954 2955 2955 2955 2956 2956 2956 2956 2957 2957 2957 2957 2957 2956 2956 2955 2954 2953 2953 2952 2951 2951 2950 2950 2949 2949 2948 2948 2948 2947 2947 2946 2945 2945 2944 2943 2943 2943 2943 2943 2943 2944 2944 2944 2943 2943 2943 2943 2943 2943 2943 2943 2943 2943 2943 2943 2943 2943 2943 2943 2943 2943 2942 2942 2942
2950 2950 2951 2952 2952 2953 2953 2953 2953 2953 2953 2954 2954 2954 2954 2954 2954 2953 2953 2952 2951 2950 2950 2949 2949 2948 2948 2948 2947 2947 2946 2945 2945 2944 2944 2944 2943 2943 2942 2941 2940 2940 2940 2940 2941 2941 2941 2941 2941 2941 2941 2941 2941 2941 2941 2940 2940 2940 2940 2940 2940 2940 2940 2940 2939 2939 2939 2939 2939
2948 2948 2949 2949 2950 2950 2951 2951 2951 2951 2951 2952 2952 2952 2952 2952 2951 2951 2950 2949 2948 2948 2947 2947 2946 2946 2945 2945 2945 2944 2944 2943 2943 2942 2942 2941 2941 2940 2940 2939 2938 2938 2938 2937 2938 2938 2939 2939 2938 2938 2938 2938 2938 2938 2938 2938 2938 2937 2937 2937 2937 2937 2937 2937 2937 2936 2936 2936 2936
2946 2946 2947 2947 2948 2948 2948 2948 2948 2949 2949 2949 2949 2949 2949 2949 2948 2948 2947 2946 2946 2945 2944 2944 2943 2943 2943 2942 2942 2942 2941 2941 2940 2940 2939 2939 2938 2938 2938 2938 2937 2936 2935 2935 2935 2935 2936 2936 2936 2936 2936 2936 2936 2935 2935 2935 2935 2934 2934 2934 2934 2934 2934 2934 2933 2933 2933 2933 2933
2944 2944 2945 2945 2945 2946 2946 2946 2946 2946 2947 2947 2947 2947 2947 2946 2946 2945 2944 2944 2943 2943 2942 2941 2941 2940 2940 2940 2939 2939 2939 2938 2938 2938 2937 2937 2936 2936 2935 2935 2934 2933 2933 2932 2932 2932 2933 2933 2934 2934 2934 2933 2933 2933 2933 2932 2932 2932 2931 2931 2931 2931 2931 2931 2931 2930 2930 2930 2930
2942 2942 2942 2943 2943 2943 2944 2944 2944 2944 2944 2944 2944 2944 2944 2943 2943 2943 2942 2941 2940 2940 2939 2939 2938 2938 2938 2937 2937 2936 2936 2936 2935 2935 2935 2934 2934 2934 2933 2933 2933 2931 2930 2930 2929 2929 2930 2931 2931 2931 2931 2931 2931 2930 2930 2929 2929 2929 2928 2928 2928 2928 2928 2928 2928 2928 2928 2928 2928
2940 2940 2940 2941 2941 2941 2942 2942 2942 2942 2942 2942 2942 2942 2941 2941 2940 2940 2939 2939 2938 2938 2937 2937 2936 2936 2935 2935 2934 2934 2933 2933 2933 2933 2933 2933 2932 2932 2932 2931 2931 2929 2928 2928 2927 2926 2927 2928 2928 2929 2929 2928 2928 2927 2927 2927 2926 2926 2926 2926 2925 2925 2925 2925 2925 2925 2925 2925 2925
2938 2938 2938 2938 2938 2939 2939 2939 2939 2939 2939 2939 2939 2938 2938 2938 2938 2938 2937 2937 2936 2935 2935 2934 2934 2933 2933 2933 2932 2932 2931 2931 2931 2930 2930 2930 2930 2930 2929 2929 2928 2928 2927 2926 2925 2924 2924 2924 2925 2926 2927 2926 2925 2925 2924 2924 2923 2923 2923 2923 2923 2923 2922 2922 2922 2922 2922 2923 2923
2936 2936 2936 2936 2936 2936 2937 2937 2937 2937 2937 2937 2936 2936 2935 2935 2935 2935 2935 2934 2934 2933 2933 2932 2932 2931 2931 2930 2930 2929 2929 2929 2928 2928 2928 2928 2928 2928 2927 2927 2926 2926 2925 2924 2923 2922 2921 2921 2922 2923 2924 2924 2923 2922 2921 2921 2920 2920 2920 2920 2920 2920 2920 2920 2920 2920 2920 2920 2920
2934 2934 2934 2934 2934 2934 2934 2935 2935 2935 2934 2934 2933 2933 2933 2932 2933 2933 2933 2933 2932 2931 2930 2930 2929 2929 2928 2928 2928 2927 2927 2927 2926 2926 2926 2926 2925 2925 2925 2924 2923 2923 2923 2922 2921 2920 2919 2918 2919 2920 2921 2922 2921 2920 2919 2918 2918 2918 2918 2918 2917 2917 2917 2917 2917 2917 2917 2918 2918
2932 2932 2932 2932 2933 2933 2933 2933 2933 2933 2932 2932 2931 2931 2930 2930 2930 2930 2930 2930 2930 2929 2929 2928 2927 2927 2926 2926 2925 2925 2925 2925 2924 2924 2923 2923 2923 2923 2922 2922 2921 2920 2920 2919 2919 2918 2917 2916 2916 2918 2919 2919 2919 2918 2917 2916 2915 2915 2915 2915 2915 2915 2915 2915 2915 2915 2915 2915 2915
2931 2931 2931 2931 2931 2931 2931 2931 2931 2930 2930 2929 2929 2928 2928 2928 2928 2928 2928 2928 2928 2928 2927 2926 2926 2925 2924 2923 2923 2923 2923 2923 2922 2922 2921 2921 2920 2920 2919 2919 2918 2918 2917 2917 2916 2916 2914 2914 2914 2915 2916 2917 2917 2916 2914 2914 2913 2913 2913 2913 2913 2913 2912 2912 2912 2912 2912 2913 2913
2929 2929 2929 2929 2929 2929 2929 2929 2929 2928 2928 2927 2927 2926 2926 2925 2925 2925 2925 2925 2926 2926 2925 2925 2924 2923 2922 2922 2921 2921 2920 2920 2920 2919 2919 2918 2918 2917 2917 2916 2916 2915 2915 2914 2914 2913 2913 2912 2912 2913 2913 2914 2914 2913 2913 2912 2911 2911 2911 2910 2910 2910 2910 2910 2910 2910 2910 2910 2910
2928 2928 2928 2928 2928 2928 2927 2927 2927 2926 2926 2925 2925 2924 2924 2923 2923 2923 2923 2923 2923 2923 2923 2923 2922 2921 2920 2920 2919 2918 2918 2918 2917 2917 2916 2916 2915 2915 2914 2913 2913 2913 2912 2912 2912 2912 2911 2910 2910 2910 2911 2912 2912 2912 2911 2910 2909 2909 2908 2908 2908 2908 2908 2907 2907 2907 2907 2907 2907
2927 2927 2927 2927 2926 2926 2926 2925 2925 2924 2924 2923 2923 2923 2922 2922 2921 2921 2921 2920 2920 2920 2920 2920 2919 2919 2918 2918 2917 2917 2916 2915 2915 2914 2914 2913 2913 2912 2911 2911 2911 2910 2910 2910 2910 2910 2909 2909 2908 2908 2909 2910 2910 2910 2909 2908 2908 2907 2907 2907 2906 2906 2905 2905 2905 2905 2905 2905 2905